[[{"header":{"parameterUnit":"m.s-1","parameterCategory":1,"la1":30.2991,"la2":30.254,"lo1":-89.0895,"lo2":-89.0444,"dy":0.0017,"dx":0.0017,"nx":28,"ny":28,"refTime":"2024-02-06T09:00:00:Z","depth":0,"parameterNumber":2,"parameterNumberName":"U-component_of_WINDS"},"data":[0,0,0,0,0,0,0,0,0,0,0,0,0,0,0,0,0,0,0,0,0,0,0,0,0,0,0,0,0,0,0,0,0,0,0,0,0,0,0,0,0,0,0,0,0,0,0,0,0,0,0,0,0,0,0,0,0,0,0.9278,0.9278,0,0.9275,0.9275,0.9275,0.9266,0.9266,0.9266,0.9266,0.926,0.926,0.926,0,0,0,0,0,0,0,0,0,0,0,0,0,0.9275,0.9275,0.9279,0.9278,0.9278,0.9275,0.9275,0.9275,0.9266,0.9266,0.9266,0.9266,0.926,0.926,0.926,0,0,0,0,0,0,0,0,0,0,0,0,0,0.9275,0.9276,0.9279,0.9274,0.9273,0.9275,0.9275,0.9275,0.9266,0.9266,0.9266,0.9266,0.926,0.926,0.926,0.9266,0,0,0.926,0.926,0,0,0,0,0,0,0,0,0.9275,0.9275,0.9274,0.9274,0.9274,0.9271,0.9272,0.9272,0.9267,0.9269,0.9266,0.9266,0.9264,0.9263,0.9263,0.9266,0.9265,0.926,0.926,0.926,0.926,0,0,0,0,0,0,0,0.9275,0.9275,0.9277,0.9274,0.9274,0.9271,0.9271,0.9272,0.9268,0.9269,0.9268,0.9268,0.9263,0.9263,0.9263,0.9265,0.926,0.926,0.926,0.926,0.9273,0.9273,0,0,0,0,0,0,0.9276,0.9275,0.9277,0.9277,0.9274,0.9272,0.9271,0.9272,0.9268,0.9267,0.9268,0.9268,0.9263,0.9263,0.9263,0.927,0.926,0.926,0.926,0.9273,0.9273,0.9273,0,0,0,0,0,0,0.9276,0.9276,0.9277,0.9276,0.9276,0.9272,0.9273,0.9272,0.9272,0.9268,0.9267,0.9269,0.9263,0.9263,0.9266,0.9269,0.926,0.926,0.9272,0.9273,0.9273,0.9283,0,0,0,0,0,0,0.9276,0.9276,0.9279,0.9276,0.9276,0.928,0.9273,0.9272,0.9273,0.9272,0.9268,0.9267,0.9263,0.9266,0.9266,0.9269,0.926,0.9272,0.9272,0.9273,0.9283,0.9284,0.9285,0,0,0,0,0,0.9276,0.9281,0.9279,0.9279,0.9279,0.9281,0.9281,0.9277,0.9273,0.9275,0.9272,0.9267,0.9269,0.9266,0.9266,0.927,0.9271,0.9272,0.9273,0.9282,0.9284,0.9285,0,0,0,0,0,0,0.9283,0.928,0.9278,0.9283,0.9282,0.9279,0.9282,0.9278,0.9278,0.9277,0.9272,0.9271,0.9274,0.9272,0.9269,0.9276,0.927,0.927,0.9277,0.9278,0.928,0.928,0.926,0,0,0,0,0,0.9285,0.9287,0.9285,0.9289,0.9289,0.9286,0.9286,0.9283,0.9282,0.9282,0.9279,0.9277,0.9278,0.9278,0.9278,0.9283,0.9282,0.9285,0.9287,0.9288,0.9288,0.9291,0.9293,0.9276,0.9276,0.9276,0,0,0.9289,0.9288,0.929,0.929,0.929,0.9292,0.9285,0.9287,0.9289,0.9282,0.9284,0.9282,0.928,0.9284,0.9286,0.9283,0.9293,0.9289,0.929,0.929,0.9292,0.9294,0.9295,0.9276,0.9276,0.9276,0,0,0.9298,0.9297,0.9301,0.9301,0.9301,0.9299,0.93,0.9298,0.9297,0.93,0.9294,0.9296,0.9296,0.9295,0.9295,0.9305,0.9301,0.9305,0.9312,0.9315,0.9317,0.9318,0.9322,0.9323,0.9306,0.9306,0.9306,0,0.9303,0.9306,0.9303,0.9306,0.9307,0.9302,0.9306,0.9306,0.9305,0.9305,0.9302,0.9304,0.9302,0.9306,0.9308,0.9308,0.9309,0.9305,0.9317,0.9318,0.9319,0.9323,0.9324,0.9307,0.9307,0.9307,0.9307,0,0.9312,0.9315,0.9318,0.9319,0.932,0.9323,0.9321,0.9322,0.932,0.9318,0.9321,0.9319,0.9319,0.932,0.9317,0.9324,0.9322,0.9318,0.9312,0.9321,0.9325,0.9326,0.9308,0.9307,0.9307,0.9307,0,0,0.9324,0.9324,0.9325,0.9326,0.9326,0.9328,0.9331,0.9332,0.9334,0.9334,0.9336,0.9338,0.9335,0.9334,0.9331,0.9334,0.9343,0.933,0.9329,0.9332,0.935,0.9353,0.9355,0.934,0.934,0.934,0.935,0,0.9332,0.9338,0.9337,0.9343,0.9345,0.9342,0.9345,0.9345,0.9344,0.9345,0.9344,0.9345,0.9341,0.934,0.9343,0.9341,0.9346,0.934,0.9342,0.9342,0.9342,0.9356,0.9359,0.9368,0.9352,0.9352,0.9352,0,0.9342,0.9344,0.9351,0.9352,0.9352,0.9355,0.9357,0.9359,0.9359,0.9358,0.9358,0.9355,0.9358,0.9353,0.9357,0.9353,0.9354,0.9353,0.9354,0.9353,0.9347,0.9356,0.9371,0.9372,0.9354,0.9354,0.9354,0,0.935,0.9354,0.9359,0.936,0.936,0.9363,0.9363,0.9363,0.9364,0.9365,0.9366,0.9367,0.9368,0.9369,0.9366,0.9362,0.9371,0.9365,0.937,0.937,0.9371,0.937,0.9386,0.9372,0.9372,0.9372,0.9372,0,0.9359,0.9363,0.9363,0.9365,0.937,0.9368,0.9373,0.9373,0.9373,0.9376,0.9373,0.9375,0.9372,0.9374,0.9372,0.9375,0.9376,0.9375,0.9374,0.9375,0.9375,0.9374,0.9374,0.9372,0.9372,0.9372,0.9372,0,0.9368,0.9368,0.9373,0.9374,0.9374,0.9378,0.9378,0.9381,0.938,0.9384,0.9384,0.9383,0.9385,0.9383,0.9385,0.9384,0.9389,0.9387,0.9389,0.9389,0.9393,0.9393,0.9409,0.9411,0.9396,0.9396,0.9396,0,0.9373,0.9377,0.9379,0.9381,0.9382,0.9385,0.9387,0.9385,0.9387,0.9389,0.9391,0.9393,0.9395,0.9399,0.9398,0.9399,0.9398,0.9403,0.9398,0.9399,0.9398,0.9397,0.9398,0.9404,0.9404,0.9404,0.9405,0,0.9383,0.9383,0.9386,0.939,0.9392,0.9394,0.9396,0.9398,0.9397,0.9399,0.9402,0.9404,0.9407,0.9409,0.941,0.941,0.9407,0.9407,0.9408,0.9408,0.9409,0.9408,0.9392,0.9406,0.9406,0.9406,0.9406,0.9405,0.939,0.9393,0.9396,0.94,0.9401,0.9404,0.9406,0.9407,0.941,0.9413,0.9412,0.9415,0.9416,0.9418,0.9419,0.9421,0.9419,0.942,0.9421,0.9421,0.9422,0.9409,0.9421,0.9421,0.9421,0.9421,0.9421,0,0.94,0.9402,0.9405,0.9409,0.9412,0.941,0.9413,0.9415,0.9419,0.942,0.9423,0.9427,0.9429,0.9429,0.9432,0.9434,0.9432,0.9434,0.9434,0.9434,0.9424,0.9422,0.9435,0.9435,0.9435,0.9435,0.9435,0.9435,0.9405,0.9411,0.9411,0.9418,0.942,0.9424,0.9426,0.9428,0.9429,0.9434,0.9437,0.9437,0.9438,0.9441,0.9443,0.9443,0.9444,0.9446,0.9446,0.9436,0.9434,0.9433,0.9432,0.9447,0.9447,0.9456,0.9456,0.9456]},{"header":{"parameterUnit":"m.s-1","parameterCategory":1,"la1":30.2991,"la2":30.254,"lo1":-89.0895,"lo2":-89.0444,"dy":0.0017,"dx":0.0017,"nx":28,"ny":28,"refTime":"2024-02-06T09:00:00:Z","depth":0,"parameterNumber":3,"parameterNumberName":"V-component_of_WINDS"},"data":[0,0,0,0,0,0,0,0,0,0,0,0,0,0,0,0,0,0,0,0,0,0,0,0,0,0,0,0,0,0,0,0,0,0,0,0,0,0,0,0,0,0,0,0,0,0,0,0,0,0,0,0,0,0,0,0,0,0,-2.6868,-2.6868,0,-2.6865,-2.6865,-2.6865,-2.6829,-2.6828,-2.6827,-2.6826,-2.6822,-2.6822,-2.6823,0,0,0,0,0,0,0,0,0,0,0,0,0,-2.6845,-2.6846,-2.6868,-2.6868,-2.6868,-2.6865,-2.6865,-2.6865,-2.6829,-2.6828,-2.6827,-2.6826,-2.6821,-2.6822,-2.6823,0,0,0,0,0,0,0,0,0,0,0,0,0,-2.685,-2.6846,-2.6868,-2.685,-2.6848,-2.6865,-2.6865,-2.6865,-2.6829,-2.6828,-2.6826,-2.6825,-2.6821,-2.6822,-2.6823,-2.6857,0,0,-2.6827,-2.6827,0,0,0,0,0,0,0,0,-2.6849,-2.6851,-2.6853,-2.6851,-2.6849,-2.6846,-2.6855,-2.6862,-2.6829,-2.6836,-2.6826,-2.6824,-2.6831,-2.6831,-2.6833,-2.6857,-2.6856,-2.6827,-2.6827,-2.6828,-2.6828,0,0,0,0,0,0,0,-2.6849,-2.6851,-2.6867,-2.6853,-2.6851,-2.6842,-2.6841,-2.6856,-2.6841,-2.6836,-2.6833,-2.6833,-2.683,-2.6832,-2.6833,-2.6856,-2.6827,-2.6828,-2.6828,-2.6829,-2.6909,-2.691,0,0,0,0,0,0,-2.6851,-2.6851,-2.6867,-2.6867,-2.6846,-2.6844,-2.6843,-2.6848,-2.6841,-2.6838,-2.6834,-2.6831,-2.6831,-2.6832,-2.6833,-2.6872,-2.6828,-2.6829,-2.6829,-2.6907,-2.6909,-2.6911,0,0,0,0,0,0,-2.6851,-2.6853,-2.6867,-2.6858,-2.6859,-2.6846,-2.6852,-2.6849,-2.6852,-2.684,-2.6837,-2.684,-2.683,-2.6831,-2.6851,-2.6871,-2.6829,-2.683,-2.6906,-2.6908,-2.691,-2.6951,0,0,0,0,0,0,-2.6851,-2.6853,-2.6866,-2.6859,-2.686,-2.6886,-2.6853,-2.685,-2.6854,-2.685,-2.6844,-2.6842,-2.6829,-2.685,-2.6853,-2.6872,-2.6831,-2.6904,-2.6907,-2.6909,-2.6948,-2.6955,-2.696,0,0,0,0,0,-2.685,-2.6877,-2.6866,-2.6869,-2.6875,-2.6887,-2.6888,-2.6873,-2.6855,-2.6868,-2.6861,-2.6842,-2.6869,-2.6852,-2.6855,-2.6875,-2.6902,-2.6906,-2.6909,-2.6945,-2.6953,-2.696,0,0,0,0,0,0,-2.6886,-2.6875,-2.6864,-2.6889,-2.689,-2.6881,-2.6896,-2.6881,-2.6886,-2.6883,-2.6864,-2.6863,-2.6886,-2.6883,-2.6864,-2.6908,-2.6883,-2.6887,-2.6909,-2.6917,-2.6923,-2.6923,-2.6832,0,0,0,0,0,-2.6897,-2.6908,-2.6898,-2.6922,-2.6922,-2.691,-2.6914,-2.6903,-2.6902,-2.6902,-2.6896,-2.6896,-2.6905,-2.6911,-2.6918,-2.6948,-2.6946,-2.6963,-2.6969,-2.6974,-2.6978,-2.6995,-2.7002,-2.6922,-2.6922,-2.6922,0,0,-2.6919,-2.6915,-2.6923,-2.6929,-2.6928,-2.694,-2.691,-2.6923,-2.6932,-2.6904,-2.6923,-2.6919,-2.6918,-2.6944,-2.6955,-2.6942,-2.7,-2.6979,-2.6983,-2.6983,-2.6999,-2.7006,-2.7013,-2.6924,-2.6924,-2.6923,0,0,-2.6966,-2.6964,-2.6984,-2.6984,-2.6983,-2.6975,-2.698,-2.6974,-2.6971,-2.699,-2.6969,-2.698,-2.6995,-2.6995,-2.6997,-2.7048,-2.7031,-2.7051,-2.7082,-2.7099,-2.7105,-2.7111,-2.7129,-2.7136,-2.7054,-2.7054,-2.7054,0,-2.6994,-2.7011,-2.6996,-2.7012,-2.7015,-2.6991,-2.7012,-2.7012,-2.7014,-2.7017,-2.7003,-2.7022,-2.7019,-2.7046,-2.7058,-2.7061,-2.7066,-2.705,-2.7105,-2.7111,-2.7116,-2.7133,-2.714,-2.7057,-2.7056,-2.7056,-2.7056,0,-2.7046,-2.7059,-2.7075,-2.7078,-2.7084,-2.7102,-2.7089,-2.7097,-2.7086,-2.7079,-2.71,-2.7096,-2.7103,-2.7109,-2.7097,-2.7134,-2.7126,-2.7109,-2.7083,-2.7126,-2.7142,-2.7148,-2.706,-2.7059,-2.7059,-2.7058,0,0,-2.7114,-2.711,-2.7116,-2.7118,-2.7116,-2.7126,-2.7143,-2.715,-2.7158,-2.716,-2.7175,-2.7189,-2.7174,-2.7177,-2.7165,-2.718,-2.7221,-2.7161,-2.7161,-2.7173,-2.7262,-2.7275,-2.7282,-2.7211,-2.7212,-2.7213,-2.7262,0,-2.7159,-2.7189,-2.7177,-2.7208,-2.722,-2.7198,-2.7214,-2.7215,-2.721,-2.722,-2.7214,-2.7225,-2.7204,-2.7205,-2.7219,-2.7213,-2.7239,-2.721,-2.7224,-2.7225,-2.7225,-2.7291,-2.7304,-2.735,-2.7268,-2.7269,-2.727,0,-2.7216,-2.7222,-2.7254,-2.7252,-2.7257,-2.7271,-2.7278,-2.7287,-2.7289,-2.7284,-2.7288,-2.7274,-2.7292,-2.7267,-2.7292,-2.7272,-2.7278,-2.7276,-2.7277,-2.7278,-2.725,-2.7293,-2.7365,-2.7372,-2.728,-2.7279,-2.7278,0,-2.7263,-2.7279,-2.7301,-2.7303,-2.7301,-2.7311,-2.7311,-2.7311,-2.7317,-2.7323,-2.7327,-2.7335,-2.7339,-2.7345,-2.7334,-2.7317,-2.7361,-2.7334,-2.7358,-2.7358,-2.7367,-2.7367,-2.7441,-2.7371,-2.7371,-2.7371,-2.7371,0,-2.7314,-2.7335,-2.7322,-2.7335,-2.7358,-2.7344,-2.7368,-2.7365,-2.7366,-2.7379,-2.7361,-2.7373,-2.7358,-2.737,-2.7361,-2.7383,-2.7385,-2.7382,-2.738,-2.7384,-2.7384,-2.7387,-2.7383,-2.7373,-2.7372,-2.7372,-2.7372,0,-2.737,-2.7361,-2.7384,-2.7381,-2.7381,-2.7398,-2.7396,-2.7408,-2.7403,-2.742,-2.7423,-2.7414,-2.7427,-2.7417,-2.7429,-2.7424,-2.7453,-2.7446,-2.7453,-2.7451,-2.7475,-2.7473,-2.7553,-2.7563,-2.7487,-2.7488,-2.7488,0,-2.7403,-2.7419,-2.7418,-2.7426,-2.7427,-2.744,-2.7446,-2.7434,-2.7441,-2.7445,-2.7458,-2.7469,-2.7477,-2.7499,-2.7493,-2.7503,-2.7496,-2.7524,-2.7497,-2.7501,-2.7497,-2.7496,-2.7498,-2.7529,-2.7529,-2.753,-2.7531,0,-2.7463,-2.7459,-2.7469,-2.7478,-2.7487,-2.7493,-2.7498,-2.7506,-2.7494,-2.7503,-2.7516,-2.7523,-2.7536,-2.7548,-2.7556,-2.7556,-2.7542,-2.7539,-2.7545,-2.7549,-2.7553,-2.7552,-2.7467,-2.7537,-2.7537,-2.7536,-2.7536,-2.7536,-2.7509,-2.7522,-2.7525,-2.7537,-2.754,-2.7546,-2.7558,-2.7555,-2.7566,-2.7576,-2.7568,-2.7584,-2.7587,-2.7597,-2.7599,-2.7611,-2.76,-2.7608,-2.761,-2.7613,-2.7616,-2.7551,-2.7613,-2.7612,-2.7612,-2.7612,-2.7612,0,-2.7568,-2.7569,-2.7581,-2.7589,-2.76,-2.7586,-2.7592,-2.7601,-2.7616,-2.762,-2.7629,-2.7645,-2.7657,-2.7654,-2.7664,-2.7675,-2.7669,-2.7678,-2.7677,-2.7678,-2.7626,-2.762,-2.7683,-2.7683,-2.7683,-2.7683,-2.7683,-2.7683,-2.76,-2.7623,-2.762,-2.7644,-2.7645,-2.7661,-2.7666,-2.7671,-2.7675,-2.7694,-2.7704,-2.7702,-2.7703,-2.7714,-2.7725,-2.7724,-2.7729,-2.7741,-2.7737,-2.7688,-2.7681,-2.7674,-2.7669,-2.7742,-2.7742,-2.7788,-2.7789,-2.7789]}]]